CZ-4 DEB, 26273

Orbit data source: Space-Track

CZ-4 DEB, 26273 is space debris in SSO originally from a launch on Thu, 14 Oct 1999 UTC launched from the Taiyaun Space Center, China (TSC). Debris objects in space refer to the collection of defunct objects orbiting the Earth. Examples of debris include non-operational satellites, rocket bodies, and fragments generated from explosions, collisions, or faulty payload assembly.

Loading next visibility...
Identifier
26273, 1999-057FK
Orbit
SSO
Country
Flag of CNCN / PRC
Related business
Manufacturer
Unknown
Mission
Spacecraft
Bus & Motor
Unknown
Mass
Unknown
Launch date (UTC)
1999-10-14 (26 years ago)
Launch vehicle
Unknown
Launch site
Taiyaun Space Center, China (TSC)
Object type
Payload
Rocket body
Debris
Shape & HBR
Unknown shape, 0.2 m
Radar Cross Section
Medium (>0.1 m² and <1 m²)

Expand to show TLE details & history
Last TLE update: 16 hours ago

TLE from 16 hours ago
0 CZ-4 DEB
1 26273U 99057FK  25296.60831125  .00002494  00000-0  31986-3 0  9999
2 26273  98.6824  62.5980 0058406 322.5258  57.0512 14.81141314374360
Epoch: 2025-10-23T14:35Z
TLE epoch observation values (Epoch: 2025-10-23T14:35:58.091Z)
Latitude
19.90364°
Longitude
168.18859°
Altitude
606.207 km
Speed
7.57 km/s
True Right ascension
03h 57m 46s
True Declination
19° 47' 29"
Sunlit
Object was in full shadow at epoch
Visualization orbit readout
Latitude
Unknown
Longitude
Unknown
Altitude
Unknown
Speed
Unknown
Apparent Right ascension
Unknown
Apparent Declination
Unknown
Sunlit
N/A
Visualization observer readout
Local Sidereal Time
02:06:25
Azimuth
Unknown
Elevation
Unknown
Doppler factor
Unknown
Orbital elements
Apogee altitude
663.689 km
Perigee altitude
581.91 km
Semi-major axis
7,000.937 km
Eccentricity
0.00584
Inclination
98.6824°
RAAN
62.598°
Arg. of periapsis
322.5258°
True anomaly
57.61506°
Mean anomaly
57.0512°
Eccentric anomaly
57.33291°
Mean motion
3.70518 °/min
Orbital period
97.16 mins
BSTAR
0.00031986
Loading maneuver chart data...
Computing Atmospheric mass density...

Documentation

Showing up to 5 results
|